| time (UTC) | temp C | wind direction | speed KPH | gust KPH | rain 1hr cm | rain 24hr cm | rain mn cm | humidity % | barometer mb |
| 20260506224001 | 23 | 118 | 1.6 | 8.0 | 0.00 | 0.00 | 0.00 | 75 | 1006.0 |
| 20260506223019 | 23 | 22 | 1.6 | 9.7 | 0.00 | 0.00 | 0.00 | 75 | 1006.0 |
| 20260506222018 | 23 | 343 | 1.6 | 9.7 | 0.00 | 0.00 | 0.00 | 76 | 1005.9 |
| 20260506215906 | 23 | 269 | 1.6 | 12.9 | 0.00 | 0.00 | 0.00 | 79 | 1006.0 |
| 20260506214835 | 22 | 129 | 3.2 | 8.0 | 0.00 | 0.00 | 0.00 | 79 | 1006.0 |
| 20260506213824 | 22 | 22 | 1.6 | 8.0 | 0.00 | 0.00 | 0.00 | 80 | 1006.1 |
| 20260506212829 | 22 | 97 | 1.6 | 9.7 | 0.00 | 0.00 | 0.00 | 81 | 1006.1 |
| 20260506211800 | 22 | 13 | 3.2 | 12.9 | 0.00 | 0.00 | 0.00 | 81 | 1006.1 |
| 20260506210738 | 22 | 52 | 1.6 | 14.5 | 0.00 | 0.00 | 0.00 | 82 | 1006.0 |
| 20260506205705 | 22 | 34 | 1.6 | 14.5 | 0.00 | 0.00 | 0.00 | 86 | 1005.9 |
| 20260506204712 | 21 | 131 | 1.6 | 8.0 | 0.00 | 0.00 | 0.00 | 87 | 1005.9 |
| 20260506202622 | 21 | 68 | 3.2 | 14.5 | 0.00 | 0.00 | 0.00 | 88 | 1006.0 |
| 20260506201642 | 21 | 75 | 3.2 | 12.9 | 0.00 | 0.00 | 0.00 | 88 | 1006.0 |
| 20260506200700 | 20 | 109 | 1.6 | 12.9 | 0.00 | 0.00 | 0.00 | 90 | 1006.1 |
| 20260506195711 | 20 | 171 | 1.6 | 8.0 | 0.00 | 0.00 | 0.00 | 91 | 1006.0 |
| 20260506194652 | 20 | 160 | 1.6 | 8.0 | 0.00 | 0.00 | 0.00 | 91 | 1006.0 |
| 20260506191349 | 20 | 110 | 1.6 | 9.7 | 0.00 | 0.00 | 0.00 | 85 | 1008.3 |
| 20260506190407 | 21 | 53 | 0.0 | 8.0 | 0.00 | 0.00 | 0.00 | 83 | 1008.3 |
| 20260506185425 | 21 | 193 | 0.0 | 8.0 | 0.00 | 0.00 | 0.00 | 81 | 1008.2 |
| 20260506184419 | 22 | 150 | 1.6 | 9.7 | 0.00 | 0.00 | 0.00 | 77 | 1008.2 |
| 20260506183416 | 22 | 109 | 1.6 | 14.5 | 0.00 | 0.00 | 0.00 | 73 | 1008.1 |
| 20260506182403 | 23 | 160 | 1.6 | 14.5 | 0.00 | 0.00 | 0.00 | 73 | 1008.2 |
| 20260506181331 | 22 | 195 | 1.6 | 6.4 | 0.00 | 0.00 | 0.00 | 74 | 1008.1 |
| 20260506180306 | 22 | 234 | 1.6 | 9.7 | 0.00 | 0.00 | 0.00 | 74 | 1008.1 |
| 20260506175311 | 22 | 160 | 1.6 | 9.7 | 0.00 | 0.00 | 0.00 | 74 | 1008.1 |
| 20260506174301 | 22 | 323 | 3.2 | 9.7 | 0.00 | 0.00 | 0.00 | 76 | 1008.3 |
| 20260506171013 | 21 | 145 | 0.0 | 6.4 | 0.00 | 0.00 | 0.00 | 79 | 1008.6 |
| 20260506170007 | 21 | 23 | 1.6 | 9.7 | 0.00 | 0.00 | 0.00 | 76 | 1008.6 |
| 20260506164955 | 21 | 45 | 0.0 | 9.7 | 0.00 | 0.00 | 0.00 | 74 | 1008.8 |
| 20260506163959 | 21 | 117 | 1.6 | 9.7 | 0.00 | 0.00 | 0.00 | 72 | 1008.8 |
| 20260506162935 | 21 | 171 | 3.2 | 9.7 | 0.00 | 0.00 | 0.00 | 70 | 1008.8 |
| 20260506161941 | 21 | 37 | 1.6 | 11.3 | 0.00 | 0.00 | 0.00 | 71 | 1008.8 |
| 20260506161003 | 21 | 67 | 1.6 | 14.5 | 0.00 | 0.00 | 0.00 | 71 | 1008.8 |
| 20260506154845 | 21 | 105 | 0.0 | 8.0 | 0.00 | 0.00 | 0.00 | 73 | 1008.6 |
| 20260506153909 | 20 | 115 | 0.0 | 6.4 | 0.00 | 0.00 | 0.00 | 73 | 1008.9 |
| 20260506152918 | 20 | 152 | 1.6 | 9.7 | 0.00 | 0.00 | 0.00 | 73 | 1008.9 |
| 20260506151846 | 20 | 103 | 1.6 | 9.7 | 0.00 | 0.00 | 0.00 | 72 | 1008.5 |
| 20260506150905 | 20 | 1 | 1.6 | 8.0 | 0.00 | 0.00 | 0.00 | 73 | 1008.5 |
| 20260506145845 | 20 | 80 | 3.2 | 17.7 | 0.00 | 0.00 | 0.00 | 72 | 1008.2 |
| 20260506144828 | 20 | 77 | 3.2 | 16.1 | 0.00 | 0.00 | 0.00 | 73 | 1008.2 |
| 20260506143838 | 20 | 68 | 1.6 | 12.9 | 0.00 | 0.00 | 0.00 | 74 | 1008.6 |
| 20260506141709 | 19 | 32 | 1.6 | 12.9 | 0.00 | 0.00 | 0.00 | 75 | 1008.7 |
| 20260506140702 | 19 | 160 | 1.6 | 12.9 | 0.00 | 0.00 | 0.00 | 76 | 1008.6 |
| 20260506135718 | 18 | 89 | 1.6 | 4.8 | 0.00 | 0.00 | 0.00 | 76 | 1009.0 |
| 20260506134657 | 18 | 172 | 1.6 | 8.0 | 0.00 | 0.00 | 0.00 | 77 | 1009.0 |
| 20260506133630 | 18 | 127 | 1.6 | 9.7 | 0.00 | 0.00 | 0.00 | 78 | 1009.1 |
| 20260506131518 | 17 | 163 | 1.6 | 6.4 | 0.00 | 0.00 | 0.00 | 80 | 1009.2 |
| 20260506130447 | 17 | 115 | 0.0 | 6.4 | 0.00 | 0.00 | 0.00 | 81 | 1009.1 |
| 20260506125416 | 17 | 147 | 0.0 | 8.0 | 0.00 | 0.00 | 0.00 | 81 | 1008.8 |
| 20260506124406 | 17 | 318 | 1.6 | 8.0 | 0.00 | 0.00 | 0.00 | 82 | 1008.6 |
| 20260506123406 | 17 | 42 | 1.6 | 6.4 | 0.00 | 0.00 | 0.00 | 82 | 1008.6 |
| 20260506122427 | 17 | 42 | 1.6 | 8.0 | 0.00 | 0.00 | 0.00 | 83 | 1008.5 |
| 20260506121424 | 17 | 76 | 1.6 | 8.0 | 0.00 | 0.00 | 0.00 | 83 | 1008.5 |
| 20260506120358 | 17 | 94 | 1.6 | 9.7 | 0.00 | 0.00 | 0.00 | 84 | 1008.3 |
| 20260506115405 | 16 | 91 | 1.6 | 9.7 | 0.00 | 0.00 | 0.00 | 84 | 1008.5 |
| 20260506114406 | 16 | 248 | 0.0 | 8.0 | 0.00 | 0.00 | 0.00 | 85 | 1008.5 |
| 20260506113414 | 16 | 100 | 0.0 | 14.5 | 0.00 | 0.00 | 0.00 | 85 | 1008.5 |
| 20260506111232 | 16 | 64 | 1.6 | 6.4 | 0.00 | 0.00 | 0.00 | 84 | 1008.2 |
| 20260506110246 | 16 | 87 | 1.6 | 14.5 | 0.00 | 0.00 | 0.00 | 85 | 1008.2 |
| 20260506105230 | 16 | 52 | 1.6 | 14.5 | 0.00 | 0.00 | 0.00 | 85 | 1008.2 |
| 20260506104249 | 16 | 115 | 0.0 | 8.0 | 0.00 | 0.00 | 0.00 | 85 | 1008.3 |
| 20260506103243 | 16 | 75 | 1.6 | 8.0 | 0.00 | 0.00 | 0.00 | 85 | 1008.3 |
| 20260506102249 | 16 | 165 | 1.6 | 8.0 | 0.00 | 0.00 | 0.00 | 85 | 1008.5 |
| 20260506101314 | 16 | 210 | 1.6 | 8.0 | 0.00 | 0.00 | 0.00 | 84 | 1008.5 |
| 20260506095225 | 16 | 37 | 1.6 | 9.7 | 0.00 | 0.00 | 0.00 | 84 | 1008.5 |
| 20260506094231 | 16 | 125 | 1.6 | 8.0 | 0.00 | 0.00 | 0.00 | 84 | 1008.6 |
| 20260506093247 | 16 | 23 | 1.6 | 8.0 | 0.00 | 0.00 | 0.00 | 84 | 1008.6 |
| 20260506092305 | 16 | 34 | 1.6 | 12.9 | 0.00 | 0.00 | 0.00 | 84 | 1008.9 |
| 20260506091324 | 16 | 56 | 1.6 | 12.9 | 0.00 | 0.00 | 0.00 | 84 | 1008.5 |
| 20260506090349 | 16 | 124 | 1.6 | 8.0 | 0.00 | 0.00 | 0.00 | 84 | 1008.5 |
| 20260506085318 | 16 | 122 | 1.6 | 8.0 | 0.00 | 0.00 | 0.00 | 83 | 1008.6 |
| 20260506084330 | 16 | 146 | 1.6 | 8.0 | 0.00 | 0.00 | 0.00 | 83 | 1008.6 |
| 20260506083301 | 16 | 92 | 1.6 | 12.9 | 0.00 | 0.00 | 0.00 | 83 | 1008.6 |
| 20260506082301 | 16 | 131 | 0.0 | 12.9 | 0.00 | 0.00 | 0.00 | 83 | 1008.6 |
| 20260506080155 | 16 | 39 | 1.6 | 8.0 | 0.00 | 0.00 | 0.00 | 83 | 1008.6 |
| 20260506073024 | 17 | 97 | 1.6 | 8.0 | 0.00 | 0.00 | 0.00 | 82 | 1008.9 |
| 20260506072010 | 17 | 68 | 0.0 | 6.4 | 0.00 | 0.00 | 0.00 | 81 | 1009.0 |
| 20260506071001 | 17 | 106 | 1.6 | 6.4 | 0.00 | 0.00 | 0.00 | 81 | 1009.0 |
| 20260506061935 | 17 | 235 | 1.6 | 9.7 | 0.00 | 0.00 | 0.00 | 80 | 1009.4 |
| 20260506060930 | 17 | 174 | 1.6 | 8.0 | 0.00 | 0.00 | 0.00 | 79 | 1009.4 |
| 20260506050815 | 17 | 263 | 3.2 | 12.9 | 0.00 | 0.00 | 0.00 | 79 | 1010.0 |
| 20260506044553 | 18 | 94 | 1.6 | 14.5 | 0.00 | 0.00 | 0.00 | 78 | 1010.0 |
| 20260506043539 | 18 | 49 | 3.2 | 17.7 | 0.00 | 0.00 | 0.00 | 78 | 1010.0 |
| 20260506042601 | 18 | 23 | 3.2 | 17.7 | 0.00 | 0.00 | 0.00 | 78 | 1010.0 |
| 20260506041555 | 18 | 51 | 1.6 | 16.1 | 0.00 | 0.00 | 0.00 | 77 | 1010.0 |
| 20260506040528 | 18 | 129 | 1.6 | 19.3 | 0.00 | 0.00 | 0.00 | 76 | 1010.0 |
| 20260506032141 | 19 | 58 | 4.8 | 20.9 | 0.00 | 0.00 | 0.00 | 71 | 1010.0 |
| 20260506031133 | 19 | 302 | 1.6 | 12.9 | 0.00 | 0.00 | 0.00 | 70 | 1010.1 |
| 20260506025000 | 20 | 203 | 3.2 | 14.5 | 0.00 | 0.00 | 0.00 | 68 | 1010.1 |
| 20260506023936 | 20 | 91 | 3.2 | 14.5 | 0.00 | 0.00 | 0.00 | 67 | 1010.0 |
| 20260506020702 | 21 | 53 | 1.6 | 8.0 | 0.00 | 0.00 | 0.00 | 64 | 1009.7 |
| 20260506015718 | 21 | 103 | 1.6 | 12.9 | 0.00 | 0.00 | 0.00 | 63 | 1009.6 |
| 20260506014712 | 21 | 76 | 3.2 | 12.9 | 0.00 | 0.00 | 0.00 | 62 | 1009.6 |
| 20260506013712 | 21 | 160 | 1.6 | 12.9 | 0.00 | 0.00 | 0.00 | 61 | 1009.3 |
| 20260506011455 | 22 | 311 | 3.2 | 14.5 | 0.00 | 0.00 | 0.00 | 60 | 1009.1 |
| 20260506010451 | 22 | 270 | 1.6 | 14.5 | 0.00 | 0.00 | 0.00 | 60 | 1009.2 |
| 20260506005511 | 22 | 66 | 1.6 | 8.0 | 0.00 | 0.00 | 0.00 | 60 | 1008.9 |
| 20260506004520 | 22 | 85 | 0.0 | 3.2 | 0.00 | 0.00 | 0.00 | 60 | 1008.9 |
| 20260506003527 | 22 | 146 | 0.0 | 9.7 | 0.00 | 0.00 | 0.00 | 59 | 1008.6 |
| 20260506002541 | 22 | 91 | 0.0 | 9.7 | 0.00 | 0.00 | 0.00 | 57 | 1008.6 |
| 20260506001603 | 22 | 304 | 0.0 | 11.3 | 0.00 | 0.00 | 0.00 | 56 | 1008.6 |
| 20260506000607 | 23 | 57 | 0.0 | 11.3 | 0.00 | 0.00 | 0.00 | 55 | 1008.6 |
| 20260505235629 | 23 | 108 | 0.0 | 3.2 | 0.00 | 0.00 | 0.00 | 55 | 1008.6 |
| 20260505234639 | 23 | 102 | 1.6 | 12.9 | 0.00 | 0.00 | 0.00 | 54 | 1008.6 |
| 20260505233614 | 23 | 359 | 1.6 | 12.9 | 0.00 | 0.00 | 0.00 | 54 | 1008.6 |
| 20260505232552 | 24 | 89 | 1.6 | 11.3 | 0.00 | 0.00 | 0.00 | 53 | 1008.6 |
| 20260505231602 | 24 | 102 | 1.6 | 17.7 | 0.00 | 0.00 | 0.00 | 51 | 1008.6 |
| 20260505230530 | 24 | 117 | 3.2 | 17.7 | 0.00 | 0.00 | 0.00 | 50 | 1008.5 |
| 20260505225505 | 25 | 64 | 3.2 | 9.7 | 0.00 | 0.00 | 0.00 | 49 | 1008.6 |